Time,TemperatureF,DewpointF,PressureIn,WindDirection,WindDirectionDegrees,WindSpeedMPH,WindSpeedGustMPH,Humidity,HourlyPrecipIn,Conditions,Clouds,dailyrainin,SolarRadiationWatts/m^2,SoftwareType,DateUTC
2013-04-16 00:02:00,60.0,39.0,-100.00,West,265,6.0,10.0,46,0.00,,,0.00,1.000000,,2013-04-16 07:02:00,
2013-04-16 00:11:00,60.0,39.0,-100.00,West,265,6.0,10.0,46,0.00,,,0.00,1.000000,,2013-04-16 07:11:00,
2013-04-16 00:42:00,58.0,39.0,-100.00,West,271,3.0,6.0,49,0.00,,,0.00,1.000000,,2013-04-16 07:42:00,
2013-04-16 00:53:00,58.0,39.0,-100.00,West,271,3.0,6.0,49,0.00,,,0.00,1.000000,,2013-04-16 07:53:00,
2013-04-16 01:02:00,58.0,39.0,-100.00,West,271,3.0,6.0,49,0.00,,,0.00,1.000000,,2013-04-16 08:02:00,
2013-04-16 01:11:00,58.0,39.0,-100.00,West,271,3.0,6.0,49,0.00,,,0.00,1.000000,,2013-04-16 08:11:00,
2013-04-16 01:42:00,59.0,38.0,-100.00,NW,311,7.0,10.0,45,0.00,,,0.00,1.000000,,2013-04-16 08:42:00,
2013-04-16 01:52:00,59.0,38.0,-100.00,NW,311,7.0,10.0,45,0.00,,,0.00,1.000000,,2013-04-16 08:52:00,
2013-04-16 02:02:00,59.0,38.0,-100.00,NW,311,7.0,10.0,45,0.00,,,0.00,1.000000,,2013-04-16 09:02:00,
2013-04-16 02:11:00,59.0,38.0,-100.00,NW,311,7.0,10.0,45,0.00,,,0.00,1.000000,,2013-04-16 09:11:00,
2013-04-16 02:43:00,60.0,37.0,-100.00,NW,320,11.0,20.0,42,0.00,,,0.00,1.000000,,2013-04-16 09:43:00,
2013-04-16 02:53:00,60.0,37.0,-100.00,NW,320,11.0,20.0,42,0.00,,,0.00,1.000000,,2013-04-16 09:53:00,
2013-04-16 03:03:00,60.0,37.0,-100.00,NW,320,11.0,20.0,42,0.00,,,0.00,1.000000,,2013-04-16 10:03:00,
2013-04-16 03:12:00,60.0,37.0,-100.00,NW,320,11.0,20.0,42,0.00,,,0.00,1.000000,,2013-04-16 10:12:00,
2013-04-16 03:43:00,59.0,35.0,-100.00,NW,318,12.0,18.0,41,0.00,,,0.00,1.000000,,2013-04-16 10:43:00,
2013-04-16 03:53:00,59.0,35.0,-100.00,NW,318,12.0,18.0,41,0.00,,,0.00,1.000000,,2013-04-16 10:53:00,
2013-04-16 04:02:00,59.0,35.0,-100.00,NW,318,12.0,18.0,41,0.00,,,0.00,1.000000,,2013-04-16 11:02:00,
2013-04-16 04:12:00,59.0,35.0,-100.00,NW,318,12.0,18.0,41,0.00,,,0.00,1.000000,,2013-04-16 11:12:00,
2013-04-16 04:32:00,59.0,36.0,-100.00,NW,320,0.0,18.0,42,0.00,,,0.00,1.000000,,2013-04-16 11:32:00,
2013-04-16 04:42:00,59.0,36.0,-100.00,NW,320,0.0,18.0,42,0.00,,,0.00,1.000000,,2013-04-16 11:42:00,
2013-04-16 04:52:00,59.0,36.0,-100.00,NW,320,0.0,18.0,42,0.00,,,0.00,1.000000,,2013-04-16 11:52:00,
2013-04-16 05:02:00,59.0,36.0,-100.00,NW,320,0.0,18.0,42,0.00,,,0.00,1.000000,,2013-04-16 12:02:00,
2013-04-16 05:12:00,59.0,36.0,-100.00,NW,320,0.0,18.0,42,0.00,,,0.00,1.000000,,2013-04-16 12:12:00,
2013-04-16 05:42:00,57.0,35.0,-100.00,NNW,333,0.0,0.0,44,0.00,,,0.00,1.000000,,2013-04-16 12:42:00,
2013-04-16 05:52:00,57.0,35.0,-100.00,NNW,333,0.0,0.0,44,0.00,,,0.00,1.000000,,2013-04-16 12:52:00,
2013-04-16 06:02:00,57.0,35.0,-100.00,NNW,333,0.0,0.0,44,0.00,,,0.00,1.000000,,2013-04-16 13:02:00,
2013-04-16 06:12:00,57.0,35.0,-100.00,NNW,333,0.0,0.0,44,0.00,,,0.00,1.000000,,2013-04-16 13:12:00,
2013-04-16 06:42:00,56.0,34.0,-100.00,NW,311,0.0,0.0,44,0.00,,,0.00,3.000000,,2013-04-16 13:42:00,
2013-04-16 06:52:00,56.0,34.0,-100.00,NW,311,0.0,0.0,44,0.00,,,0.00,3.000000,,2013-04-16 13:52:00,
2013-04-16 07:02:00,56.0,34.0,-100.00,NW,311,0.0,0.0,44,0.00,,,0.00,3.000000,,2013-04-16 14:02:00,
2013-04-16 07:12:00,56.0,34.0,-100.00,NW,311,0.0,0.0,44,0.00,,,0.00,3.000000,,2013-04-16 14:12:00,
2013-04-16 07:42:00,57.0,36.0,-100.00,NW,307,0.0,0.0,45,0.00,,,0.00,91.000000,,2013-04-16 14:42:00,
2013-04-16 07:52:00,57.0,36.0,-100.00,NW,307,0.0,0.0,45,0.00,,,0.00,91.000000,,2013-04-16 14:52:00,
2013-04-16 08:02:00,57.0,36.0,-100.00,NW,307,0.0,0.0,45,0.00,,,0.00,91.000000,,2013-04-16 15:02:00,
2013-04-16 08:12:00,57.0,36.0,-100.00,NW,307,0.0,0.0,45,0.00,,,0.00,91.000000,,2013-04-16 15:12:00,
2013-04-16 08:43:00,59.0,35.0,-100.00,WNW,301,0.0,0.0,41,0.00,,,0.00,306.000000,,2013-04-16 15:43:00,
2013-04-16 08:53:00,59.0,35.0,-100.00,WNW,301,0.0,0.0,41,0.00,,,0.00,306.000000,,2013-04-16 15:53:00,
2013-04-16 09:03:00,59.0,35.0,-100.00,WNW,301,0.0,0.0,41,0.00,,,0.00,306.000000,,2013-04-16 16:03:00,
2013-04-16 09:12:00,59.0,35.0,-100.00,WNW,301,0.0,0.0,41,0.00,,,0.00,306.000000,,2013-04-16 16:12:00,
2013-04-16 09:42:00,63.0,34.0,-100.00,WNW,298,14.0,21.0,34,0.00,,,0.00,534.000000,,2013-04-16 16:42:00,
2013-04-16 09:52:00,63.0,34.0,-100.00,WNW,298,14.0,21.0,34,0.00,,,0.00,534.000000,,2013-04-16 16:52:00,
2013-04-16 10:02:00,63.0,34.0,-100.00,WNW,298,14.0,21.0,34,0.00,,,0.00,534.000000,,2013-04-16 17:02:00,
2013-04-16 10:12:00,63.0,34.0,-100.00,WNW,298,14.0,21.0,34,0.00,,,0.00,534.000000,,2013-04-16 17:12:00,
2013-04-16 10:43:00,66.0,32.0,-100.00,NW,306,12.0,20.0,28,0.00,,,0.00,743.000000,,2013-04-16 17:43:00,
2013-04-16 10:53:00,66.0,32.0,-100.00,NW,306,12.0,20.0,28,0.00,,,0.00,743.000000,,2013-04-16 17:53:00,
2013-04-16 11:02:00,66.0,32.0,-100.00,NW,306,12.0,20.0,28,0.00,,,0.00,743.000000,,2013-04-16 18:02:00,
2013-04-16 11:12:00,66.0,32.0,-100.00,NW,306,12.0,20.0,28,0.00,,,0.00,743.000000,,2013-04-16 18:12:00,
2013-04-16 11:43:00,69.0,30.0,-100.00,WNW,290,14.0,19.0,23,0.00,,,0.00,907.000000,,2013-04-16 18:43:00,
2013-04-16 11:52:00,69.0,30.0,-100.00,WNW,290,14.0,19.0,23,0.00,,,0.00,907.000000,,2013-04-16 18:52:00,
2013-04-16 12:02:00,69.0,30.0,-100.00,WNW,290,14.0,19.0,23,0.00,,,0.00,907.000000,,2013-04-16 19:02:00,
2013-04-16 12:12:00,69.0,30.0,-100.00,WNW,290,14.0,19.0,23,0.00,,,0.00,907.000000,,2013-04-16 19:12:00,
2013-04-16 12:42:00,71.0,30.0,-100.00,WNW,291,13.0,22.0,22,0.00,,,0.00,1002.000000,,2013-04-16 19:42:00,
2013-04-16 12:52:00,71.0,30.0,-100.00,WNW,291,13.0,22.0,22,0.00,,,0.00,1002.000000,,2013-04-16 19:52:00,
2013-04-16 13:02:00,71.0,30.0,-100.00,WNW,291,13.0,22.0,22,0.00,,,0.00,1002.000000,,2013-04-16 20:02:00,
2013-04-16 13:12:00,71.0,30.0,-100.00,WNW,291,13.0,22.0,22,0.00,,,0.00,1002.000000,,2013-04-16 20:12:00,
2013-04-16 13:32:00,73.0,30.0,-100.00,WNW,289,10.0,20.0,20,0.00,,,0.00,1031.000000,,2013-04-16 20:32:00,
2013-04-16 13:42:00,73.0,30.0,-100.00,WNW,289,10.0,20.0,20,0.00,,,0.00,1031.000000,,2013-04-16 20:42:00,
2013-04-16 13:52:00,73.0,30.0,-100.00,WNW,289,10.0,20.0,20,0.00,,,0.00,1031.000000,,2013-04-16 20:52:00,
2013-04-16 14:02:00,73.0,30.0,-100.00,WNW,289,10.0,20.0,20,0.00,,,0.00,1031.000000,,2013-04-16 21:02:00,
2013-04-16 14:12:00,73.0,30.0,-100.00,WNW,289,10.0,20.0,20,0.00,,,0.00,1031.000000,,2013-04-16 21:12:00,
2013-04-16 14:43:00,74.0,29.0,-100.00,West,279,12.0,19.0,19,0.00,,,0.00,994.000000,,2013-04-16 21:43:00,
2013-04-16 14:53:00,74.0,29.0,-100.00,West,279,12.0,19.0,19,0.00,,,0.00,994.000000,,2013-04-16 21:53:00,
2013-04-16 15:02:00,74.0,29.0,-100.00,West,279,12.0,19.0,19,0.00,,,0.00,994.000000,,2013-04-16 22:02:00,
2013-04-16 15:12:00,74.0,29.0,-100.00,West,279,12.0,19.0,19,0.00,,,0.00,994.000000,,2013-04-16 22:12:00,
2013-04-16 15:43:00,74.0,29.0,-100.00,West,267,11.0,19.0,19,0.00,,,0.00,881.000000,,2013-04-16 22:43:00,
2013-04-16 15:52:00,74.0,29.0,-100.00,West,267,11.0,19.0,19,0.00,,,0.00,881.000000,,2013-04-16 22:52:00,
2013-04-16 16:02:00,74.0,29.0,-100.00,West,267,11.0,19.0,19,0.00,,,0.00,881.000000,,2013-04-16 23:02:00,
2013-04-16 16:12:00,74.0,29.0,-100.00,West,267,11.0,19.0,19,0.00,,,0.00,881.000000,,2013-04-16 23:12:00,
2013-04-16 16:32:00,76.0,29.0,-100.00,WNW,294,11.0,17.0,18,0.00,,,0.00,709.000000,,2013-04-16 23:32:00,
2013-04-16 16:43:00,76.0,29.0,-100.00,WNW,294,11.0,17.0,18,0.00,,,0.00,709.000000,,2013-04-16 23:43:00,
2013-04-16 16:52:00,76.0,29.0,-100.00,WNW,294,11.0,17.0,18,0.00,,,0.00,709.000000,,2013-04-16 23:52:00,
2013-04-16 17:02:00,76.0,29.0,-100.00,WNW,294,11.0,17.0,18,0.00,,,0.00,709.000000,,2013-04-17 00:02:00,
2013-04-16 17:12:00,76.0,29.0,-100.00,WNW,294,11.0,17.0,18,0.00,,,0.00,709.000000,,2013-04-17 00:12:00,
2013-04-16 17:42:00,75.0,30.0,-100.00,WNW,282,11.0,18.0,19,0.00,,,0.00,493.000000,,2013-04-17 00:42:00,
2013-04-16 17:52:00,75.0,30.0,-100.00,WNW,282,11.0,18.0,19,0.00,,,0.00,493.000000,,2013-04-17 00:52:00,
2013-04-16 18:02:00,75.0,30.0,-100.00,WNW,282,11.0,18.0,19,0.00,,,0.00,493.000000,,2013-04-17 01:02:00,
2013-04-16 18:12:00,75.0,30.0,-100.00,WNW,282,11.0,18.0,19,0.00,,,0.00,493.000000,,2013-04-17 01:12:00,
2013-04-16 18:32:00,72.0,32.0,-100.00,WNW,296,10.0,17.0,23,0.00,,,0.00,258.000000,,2013-04-17 01:32:00,
2013-04-16 18:42:00,72.0,32.0,-100.00,WNW,296,10.0,17.0,23,0.00,,,0.00,258.000000,,2013-04-17 01:42:00,
2013-04-16 18:52:00,72.0,32.0,-100.00,WNW,296,10.0,17.0,23,0.00,,,0.00,258.000000,,2013-04-17 01:52:00,
2013-04-16 19:02:00,72.0,32.0,-100.00,WNW,296,10.0,17.0,23,0.00,,,0.00,258.000000,,2013-04-17 02:02:00,
2013-04-16 19:11:00,72.0,32.0,-100.00,WNW,296,10.0,17.0,23,0.00,,,0.00,258.000000,,2013-04-17 02:11:00,
2013-04-16 19:42:00,67.0,34.0,-100.00,NW,304,9.0,14.0,29,0.00,,,0.00,57.000000,,2013-04-17 02:42:00,
2013-04-16 19:52:00,67.0,34.0,-100.00,NW,304,9.0,14.0,29,0.00,,,0.00,57.000000,,2013-04-17 02:52:00,
2013-04-16 20:02:00,67.0,34.0,-100.00,NW,304,9.0,14.0,29,0.00,,,0.00,57.000000,,2013-04-17 03:02:00,
2013-04-16 20:12:00,67.0,34.0,-100.00,NW,304,9.0,14.0,29,0.00,,,0.00,57.000000,,2013-04-17 03:12:00,
2013-04-16 20:42:00,64.0,35.0,-100.00,WNW,286,15.0,22.0,34,0.00,,,0.00,1.000000,,2013-04-17 03:42:00,
2013-04-16 20:53:00,64.0,35.0,-100.00,WNW,286,15.0,22.0,34,0.00,,,0.00,1.000000,,2013-04-17 03:53:00,
2013-04-16 21:03:00,64.0,35.0,-100.00,WNW,286,15.0,22.0,34,0.00,,,0.00,1.000000,,2013-04-17 04:03:00,
2013-04-16 21:12:00,64.0,35.0,-100.00,WNW,286,15.0,22.0,34,0.00,,,0.00,1.000000,,2013-04-17 04:12:00,
2013-04-16 21:42:00,60.0,35.0,-100.00,WNW,290,15.0,23.0,39,0.00,,,0.00,1.000000,,2013-04-17 04:42:00,
2013-04-16 21:52:00,60.0,35.0,-100.00,WNW,290,15.0,23.0,39,0.00,,,0.00,1.000000,,2013-04-17 04:52:00,
2013-04-16 22:02:00,60.0,35.0,-100.00,WNW,290,15.0,23.0,39,0.00,,,0.00,1.000000,,2013-04-17 05:02:00,
2013-04-16 22:12:00,60.0,35.0,-100.00,WNW,290,15.0,23.0,39,0.00,,,0.00,1.000000,,2013-04-17 05:12:00,
2013-04-16 22:32:00,58.0,35.0,-100.00,WNW,284,14.0,21.0,42,0.00,,,0.00,1.000000,,2013-04-17 05:32:00,
2013-04-16 22:43:00,58.0,35.0,-100.00,WNW,284,14.0,21.0,42,0.00,,,0.00,1.000000,,2013-04-17 05:43:00,
2013-04-16 22:52:00,58.0,35.0,-100.00,WNW,284,14.0,21.0,42,0.00,,,0.00,1.000000,,2013-04-17 05:52:00,
2013-04-16 23:02:00,58.0,35.0,-100.00,WNW,284,14.0,21.0,42,0.00,,,0.00,1.000000,,2013-04-17 06:02:00,
2013-04-16 23:12:00,58.0,35.0,-100.00,WNW,284,14.0,21.0,42,0.00,,,0.00,1.000000,,2013-04-17 06:12:00,
2013-04-16 23:32:00,57.0,37.0,-100.00,West,281,8.0,17.0,47,0.00,,,0.00,1.000000,,2013-04-17 06:32:00,
2013-04-16 23:42:00,57.0,37.0,-100.00,West,281,8.0,17.0,47,0.00,,,0.00,1.000000,,2013-04-17 06:42:00,
2013-04-16 23:52:00,57.0,37.0,-100.00,West,281,8.0,17.0,47,0.00,,,0.00,1.000000,,2013-04-17 06:52:00,